Location: Drocourt
(49.0571°N, 1.7669°E)
Time: 22:03:44
(UTC+00:00)

Vanguard 1 Rocket - All Passes

Search period start: 12 April 2024 00:00
Search period end: 22 April 2024 00:00
Orbit: 652 x 4220 km, 34.3° (Epoch: 11 April)

Date Brightness Start Highest point End Pass type
(mag) Time Alt. Az. Time Alt. Az. Time Alt. Az.
12 Apr - 00:48:25 10° WSW 01:00:29 37° SSW 01:20:02 10° SE visible
12 Apr - 03:16:30 10° WSW 03:28:29 21° SW 03:43:42 10° S visible
12 Apr - 18:53:51 10° SSE 18:57:28 14° SE 19:02:05 10° ESE daylight
12 Apr - 21:13:37 10° SW 21:21:08 36° SSE 21:34:24 10° ESE visible
12 Apr - 23:36:51 10° WSW 23:47:15 40° S 00:05:23 10° SE visible
13 Apr - 02:02:42 10° WSW 02:14:57 27° SSW 02:32:26 10° SSE visible
13 Apr - 20:03:34 10° SSW 20:09:31 27° SSE 20:19:07 10° ESE visible
13 Apr - 22:25:46 10° WSW 22:34:31 40° S 22:50:15 10° ESE visible
14 Apr - 00:50:15 10° WSW 01:01:31 32° SSW 01:19:23 10° SSE visible
14 Apr - 03:20:03 10° WSW 03:29:13 15° SW 03:40:18 10° SSW visible
14 Apr - 18:54:25 10° S 18:58:26 16° SE 19:03:48 10° ESE daylight
14 Apr - 21:15:07 10° SW 21:22:19 36° SSE 21:35:03 10° ESE visible
14 Apr - 23:38:35 10° WSW 23:48:24 36° S 00:05:12 10° SE visible
15 Apr - 02:05:10 10° WSW 02:15:51 22° SSW 02:30:35 10° S visible
15 Apr - 20:04:53 10° SW 20:10:41 28° SSE 20:20:04 10° ESE visible
15 Apr - 22:27:26 10° WSW 22:35:45 37° S 22:50:27 10° SE visible
16 Apr - 00:52:18 10° WSW 01:02:36 27° SSW 01:18:21 10° SSE visible
16 Apr - 03:27:28 10° SW 03:30:02 10° SW 03:32:43 10° SW visible
16 Apr - 18:55:20 10° SSW 18:59:30 18° SSE 19:05:16 10° ESE daylight
16 Apr - 21:16:41 10° SW 21:23:35 34° S 21:35:36 10° ESE visible
16 Apr - 23:40:27 10° WSW 23:49:36 31° SSW 00:04:47 10° SE visible
17 Apr - 02:08:21 10° WSW 02:16:49 16° SSW 02:27:45 10° S visible
17 Apr - 20:06:20 10° SW 20:11:55 28° SSE 20:20:57 10° ESE visible
17 Apr - 22:29:11 10° WSW 22:37:02 33° S 22:50:31 10° SE visible
18 Apr - 00:54:41 10° WSW 01:03:42 22° SSW 01:16:48 10° SSE visible
18 Apr - 18:56:28 10° SSW 19:00:40 20° SSE 19:06:34 10° ESE daylight
18 Apr - 21:18:21 10° WSW 21:24:54 32° S 21:36:04 10° ESE visible
18 Apr - 23:42:30 10° WSW 23:50:51 26° SSW 00:04:02 10° SSE visible
19 Apr - 02:13:46 10° SW 02:17:51 11° SW 02:22:26 10° SSW visible
19 Apr - 17:48:05 10° SSE 17:49:43 11° SE 17:51:31 10° SE daylight
19 Apr - 20:07:52 10° SW 20:13:13 28° SSE 20:21:45 10° ESE visible
19 Apr - 22:31:03 10° WSW 22:38:20 29° S 22:50:22 10° SE visible
20 Apr - 00:57:42 10° WSW 01:04:52 16° SSW 01:14:27 10° S visible
20 Apr - 18:57:46 10° SSW 19:01:55 21° SSE 19:07:45 10° ESE daylight
20 Apr - 21:20:06 10° WSW 21:26:16 29° S 21:36:24 10° SE visible
20 Apr - 23:44:50 10° WSW 23:52:07 21° SSW 00:02:51 10° SSE visible
21 Apr - 17:48:32 10° S 17:50:53 13° SSE 17:53:38 10° SE daylight
21 Apr - 20:09:29 10° SW 20:14:34 26° S 20:22:29 10° ESE visible
21 Apr - 22:33:06 10° WSW 22:39:42 24° SSW 22:49:57 10° SSE visible
